| time (UTC) | temp C | wind direction | speed KPH | gust KPH | rain 1hr cm | rain 24hr cm | rain mn cm | humidity % | barometer mb |
| 20260505235649 | 24 | 227 | 16.1 | 22.5 | 0.00 | 0.23 | 0.23 | 36 | 1043.6 |
| 20260505234652 | 25 | 228 | 20.9 | 25.7 | 0.00 | 0.23 | 0.23 | 35 | 1043.5 |
| 20260505233748 | 25 | 230 | 19.3 | 25.7 | 0.00 | 0.23 | 0.23 | 35 | 1043.6 |
| 20260505232848 | 25 | 231 | 17.7 | 22.5 | 0.00 | 0.23 | 0.23 | 34 | 1043.5 |
| 20260505230851 | 25 | 224 | 20.9 | 32.2 | 0.00 | 0.23 | 0.23 | 32 | 1043.6 |
| 20260505225949 | 25 | 240 | 19.3 | 24.1 | 0.00 | 0.23 | 0.23 | 32 | 1043.3 |
| 20260505225048 | 26 | 241 | 22.5 | 32.2 | 0.00 | 0.23 | 0.23 | 31 | 1043.1 |
| 20260505224049 | 26 | 258 | 19.3 | 27.4 | 0.00 | 0.23 | 0.23 | 31 | 1043.3 |
| 20260505223052 | 26 | 227 | 25.7 | 35.4 | 0.00 | 0.23 | 0.23 | 32 | 1043.1 |
| 20260505221149 | 26 | 243 | 22.5 | 30.6 | 0.00 | 0.23 | 0.23 | 32 | 1042.8 |
| 20260505220148 | 26 | 241 | 20.9 | 29.0 | 0.00 | 0.23 | 0.23 | 32 | 1043.2 |
| 20260505215148 | 26 | 264 | 25.7 | 41.8 | 0.00 | 0.23 | 0.23 | 32 | 1043.2 |
| 20260505214150 | 26 | 236 | 14.5 | 20.9 | 0.00 | 0.23 | 0.23 | 32 | 1043.3 |
| 20260505213248 | 26 | 246 | 25.7 | 32.2 | 0.00 | 0.23 | 0.23 | 32 | 1043.3 |
| 20260505212348 | 26 | 226 | 32.2 | 45.1 | 0.00 | 0.23 | 0.23 | 32 | 1043.2 |
| 20260505211350 | 26 | 268 | 17.7 | 25.7 | 0.00 | 0.23 | 0.23 | 31 | 1043.0 |
| 20260505210352 | 26 | 274 | 24.1 | 33.8 | 0.00 | 0.23 | 0.23 | 32 | 1042.9 |
| 20260505205349 | 26 | 246 | 27.4 | 38.6 | 0.00 | 0.23 | 0.23 | 30 | 1043.2 |
| 20260505204349 | 26 | 250 | 27.4 | 41.8 | 0.00 | 0.23 | 0.23 | 31 | 1043.2 |
| 20260505203350 | 26 | 214 | 25.7 | 35.4 | 0.00 | 0.23 | 0.23 | 30 | 1043.0 |
| 20260505202448 | 26 | 226 | 25.7 | 40.2 | 0.00 | 0.23 | 0.23 | 30 | 1043.2 |
| 20260505201450 | 26 | 267 | 25.7 | 30.6 | 0.00 | 0.23 | 0.23 | 30 | 1043.2 |
| 20260505200450 | 26 | 226 | 27.4 | 41.8 | 0.00 | 0.23 | 0.23 | 28 | 1043.2 |
| 20260505195450 | 26 | 234 | 27.4 | 40.2 | 0.00 | 0.23 | 0.23 | 29 | 1043.3 |
| 20260505195348 | 26 | 233 | 32.2 | 48.3 | 0.00 | 0.23 | 0.23 | 29 | 1043.3 |
| 20260505193350 | 26 | 244 | 25.7 | 37.0 | 0.00 | 0.23 | 0.23 | 28 | 1043.3 |
| 20260505192449 | 26 | 258 | 27.4 | 38.6 | 0.00 | 0.23 | 0.23 | 27 | 1043.3 |
| 20260505191549 | 26 | 232 | 25.7 | 38.6 | 0.00 | 0.23 | 0.23 | 27 | 1043.3 |
| 20260505190647 | 26 | 241 | 27.4 | 37.0 | 0.00 | 0.23 | 0.23 | 28 | 1043.3 |
| 20260505185650 | 26 | 230 | 20.9 | 27.4 | 0.00 | 0.23 | 0.23 | 29 | 1043.6 |
| 20260505184649 | 26 | 215 | 25.7 | 37.0 | 0.00 | 0.23 | 0.23 | 28 | 1043.6 |
| 20260505183650 | 26 | 228 | 19.3 | 25.7 | 0.00 | 0.23 | 0.23 | 30 | 1043.6 |
| 20260505181749 | 26 | 246 | 29.0 | 38.6 | 0.00 | 0.23 | 0.23 | 29 | 1044.0 |
| 20260505180748 | 26 | 243 | 25.7 | 38.6 | 0.00 | 0.23 | 0.23 | 30 | 1044.2 |
| 20260505175749 | 26 | 250 | 30.6 | 43.5 | 0.00 | 0.23 | 0.23 | 33 | 1044.2 |
| 20260505172847 | 26 | 246 | 19.3 | 25.7 | 0.00 | 0.23 | 0.23 | 35 | 1044.2 |
| 20260505171850 | 26 | 240 | 20.9 | 33.8 | 0.00 | 0.23 | 0.23 | 35 | 1044.3 |
| 20260505165949 | 25 | 311 | 11.3 | 17.7 | 0.00 | 0.23 | 0.23 | 38 | 1044.5 |
| 20260505164951 | 25 | 262 | 9.7 | 19.3 | 0.00 | 0.23 | 0.23 | 39 | 1045.0 |
| 20260505163950 | 25 | 312 | 11.3 | 16.1 | 0.00 | 0.23 | 0.23 | 39 | 1044.9 |
| 20260505162047 | 25 | 232 | 19.3 | 24.1 | 0.00 | 0.23 | 0.23 | 40 | 1045.3 |
| 20260505161105 | 25 | 215 | 17.7 | 24.1 | 0.00 | 0.23 | 0.23 | 40 | 1045.0 |
| 20260505160152 | 25 | 242 | 22.5 | 29.0 | 0.00 | 0.23 | 0.23 | 41 | 1045.2 |
| 20260505153149 | 23 | 305 | 12.9 | 17.7 | 0.00 | 0.23 | 0.23 | 43 | 1045.6 |
| 20260505152148 | 23 | 301 | 12.9 | 22.5 | 0.00 | 0.23 | 0.23 | 44 | 1045.6 |
| 20260505150249 | 23 | 277 | 4.8 | 11.3 | 0.00 | 0.23 | 0.23 | 47 | 1045.9 |
| 20260505140448 | 20 | 298 | 14.5 | 19.3 | 0.00 | 0.23 | 0.23 | 53 | 1046.4 |
| 20260505124549 | 16 | 216 | 4.8 | 8.0 | 0.00 | 0.23 | 0.23 | 70 | 1046.5 |
| 20260505123549 | 16 | 199 | 3.2 | 4.8 | 0.00 | 0.23 | 0.23 | 69 | 1046.6 |
| 20260505122549 | 16 | 234 | 4.8 | 8.0 | 0.00 | 0.23 | 0.23 | 72 | 1046.5 |
| 20260505121550 | 15 | 217 | 4.8 | 6.4 | 0.00 | 0.23 | 0.23 | 74 | 1046.3 |
| 20260505120550 | 15 | 245 | 6.4 | 9.7 | 0.00 | 0.23 | 0.23 | 88 | 1046.3 |
| 20260505115648 | 14 | 360 | 0.0 | 0.0 | 0.00 | 0.23 | 0.23 | 93 | 1046.1 |
| 20260505114649 | 13 | 283 | 0.0 | 0.0 | 0.00 | 0.23 | 0.23 | 93 | 1045.8 |
| 20260505113650 | 12 | 22 | 0.0 | 1.6 | 0.00 | 0.23 | 0.23 | 91 | 1046.0 |
| 20260505112650 | 12 | 247 | 0.0 | 0.0 | 0.00 | 0.23 | 0.23 | 93 | 1045.9 |
| 20260505111647 | 12 | 45 | 0.0 | 0.0 | 0.00 | 0.23 | 0.23 | 94 | 1045.9 |
| 20260505110747 | 11 | 45 | 0.0 | 0.0 | 0.00 | 0.23 | 0.23 | 94 | 1045.9 |
| 20260505101949 | 11 | 22 | 0.0 | 1.6 | 0.03 | 0.23 | 0.23 | 92 | 1045.3 |
| 20260505100948 | 11 | 45 | 0.0 | 0.0 | 0.13 | 0.23 | 0.23 | 92 | 1045.3 |
| 20260505095951 | 11 | 45 | 0.0 | 0.0 | 0.20 | 0.20 | 0.20 | 91 | 1045.4 |
| 20260505094948 | 11 | 45 | 0.0 | 1.6 | 0.20 | 0.20 | 0.20 | 91 | 1045.5 |
| 20260505093950 | 11 | 67 | 4.8 | 6.4 | 0.20 | 0.20 | 0.20 | 88 | 1045.2 |
| 20260505092950 | 11 | 163 | 3.2 | 6.4 | 0.20 | 0.20 | 0.20 | 85 | 1045.7 |
| 20260505091949 | 12 | 67 | 1.6 | 3.2 | 0.20 | 0.20 | 0.20 | 83 | 1045.4 |
| 20260505085147 | 12 | 29 | 3.2 | 4.8 | 0.00 | 0.00 | 0.00 | 74 | 1045.2 |
| 20260505084150 | 13 | 360 | 1.6 | 3.2 | 0.00 | 0.00 | 0.00 | 70 | 1045.1 |
| 20260505083148 | 13 | 90 | 1.6 | 3.2 | 0.00 | 0.00 | 0.00 | 69 | 1045.0 |
| 20260505082148 | 13 | 45 | 4.8 | 6.4 | 0.00 | 0.00 | 0.00 | 66 | 1044.8 |
| 20260505081149 | 15 | 219 | 0.0 | 1.6 | 0.00 | 0.00 | 0.00 | 62 | 1044.9 |
| 20260505075248 | 15 | 319 | 1.6 | 4.8 | 0.00 | 0.00 | 0.00 | 61 | 1045.0 |
| 20260505073251 | 15 | 202 | 0.0 | 0.0 | 0.00 | 0.00 | 0.00 | 60 | 1045.0 |
| 20260505071349 | 15 | 100 | 0.0 | 0.0 | 0.00 | 0.00 | 0.00 | 58 | 1045.0 |
| 20260505070348 | 15 | 67 | 0.0 | 0.0 | 0.00 | 0.00 | 0.00 | 57 | 1045.0 |
| 20260505065351 | 15 | 180 | 1.6 | 3.2 | 0.00 | 0.00 | 0.00 | 57 | 1044.9 |
| 20260505064351 | 15 | 180 | 3.2 | 4.8 | 0.00 | 0.00 | 0.00 | 57 | 1045.1 |
| 20260505063449 | 15 | 225 | 0.0 | 0.0 | 0.00 | 0.00 | 0.00 | 56 | 1044.9 |
| 20260505062449 | 15 | 225 | 0.0 | 0.0 | 0.00 | 0.00 | 0.00 | 56 | 1045.0 |
| 20260505052650 | 15 | 45 | 0.0 | 0.0 | 0.00 | 0.00 | 0.00 | 53 | 1045.0 |
| 20260505051748 | 15 | 225 | 3.2 | 4.8 | 0.00 | 0.00 | 0.00 | 53 | 1045.0 |
| 20260505040751 | 16 | 199 | 6.4 | 14.5 | 0.00 | 0.00 | 0.00 | 51 | 1044.8 |
| 20260505035829 | 16 | 202 | 1.6 | 4.8 | 0.00 | 0.00 | 0.00 | 50 | 1044.8 |
| 20260505033832 | 16 | 182 | 1.6 | 4.8 | 0.00 | 0.00 | 0.00 | 48 | 1044.8 |
| 20260505032929 | 16 | 203 | 4.8 | 11.3 | 0.00 | 0.00 | 0.00 | 48 | 1044.9 |
| 20260505031029 | 17 | 219 | 8.0 | 9.7 | 0.00 | 0.00 | 0.00 | 47 | 1045.0 |
| 20260505025031 | 17 | 228 | 4.8 | 6.4 | 0.00 | 0.00 | 0.00 | 46 | 1045.1 |
| 20260505024032 | 17 | 216 | 11.3 | 16.1 | 0.00 | 0.00 | 0.00 | 46 | 1045.2 |
| 20260505023031 | 17 | 219 | 4.8 | 6.4 | 0.00 | 0.00 | 0.00 | 46 | 1045.2 |
| 20260505021030 | 17 | 215 | 8.0 | 12.9 | 0.00 | 0.00 | 0.00 | 45 | 1045.4 |
| 20260505015030 | 17 | 180 | 1.6 | 3.2 | 0.00 | 0.00 | 0.00 | 45 | 1045.3 |
| 20260505014030 | 17 | 202 | 3.2 | 4.8 | 0.00 | 0.00 | 0.00 | 45 | 1045.2 |
| 20260505013031 | 17 | 214 | 3.2 | 8.0 | 0.00 | 0.00 | 0.00 | 44 | 1045.2 |
| 20260505012029 | 17 | 211 | 3.2 | 4.8 | 0.00 | 0.00 | 0.00 | 43 | 1045.1 |
| 20260505011033 | 17 | 202 | 1.6 | 3.2 | 0.00 | 0.00 | 0.00 | 43 | 1045.0 |
| 20260505010033 | 17 | 225 | 1.6 | 3.2 | 0.00 | 0.00 | 0.00 | 43 | 1044.9 |
| 20260505004130 | 17 | 180 | 1.6 | 3.2 | 0.00 | 0.00 | 0.00 | 42 | 1044.7 |
| 20260505003131 | 18 | 225 | 1.6 | 3.2 | 0.00 | 0.00 | 0.00 | 42 | 1044.8 |
| 20260505002130 | 18 | 246 | 1.6 | 4.8 | 0.00 | 0.00 | 0.00 | 41 | 1044.6 |
| 20260505001131 | 18 | 209 | 4.8 | 6.4 | 0.00 | 0.00 | 0.00 | 39 | 1044.5 |
| 20260505000129 | 19 | 225 | 9.7 | 12.9 | 0.00 | 0.00 | 0.00 | 39 | 1044.5 |